This demonstration page uses our WeatherBlox Daily Observations layout. Learn more.

Left ArrowRight Arrow

38.83388, -104.82136

Hourly Observations for November 30, 2019

Temp ( °F °C ) Dew Point ( °F °C ) Humidity (%) Winds ( mph kmh ) Pressure ( in mb ) Visibility ( mi km ) Precip ( " mm )
12:54 am 00:54 Partly Cloudy 31 -0.6 6 -14.4 35 35 E 9 15 29.36 994 10 16 0.00 0.00
1:54 am 01:54 Partly Cloudy 29 -1.7 6 -14.4 38 38 NNE 6 9 29.38 995 10 16 0.00 0.00
2:54 am 02:54 Mostly Cloudy 35 1.7 0 -17.8 22 22 W 12 19 29.34 994 10 16 0.00 0.00
3:54 am 03:54 Cloudy 35 1.7 2 -16.7 24 24 W 22 35 29.36 994 10 16 0.00 0.00
4:54 am 04:54 Cloudy 34 1.1 2 -16.7 25 25 W 35 56 29.35 994 10 16 0.00 0.00
5:54 am 05:54 Cloudy 34 1.1 3 -16.1 27 27 WNW 32 52 29.40 996 10 16 0.00 0.00
6:54 am 06:54 Mostly Cloudy 34 1.1 3 -16.1 27 27 WNW 21 33 29.44 997 10 16 0.00 0.00
7:54 am 07:54 Mostly Cloudy 34 1.1 3 -16.1 27 27 NW 18 30 29.51 999 10 16 0.00 0.00
11:54 am 11:54 Mostly Cloudy 37 2.8 2 -16.7 22 22 WNW 29 46 29.63 1003 10 16 0.00 0.00
12:54 pm 12:54 Mostly Cloudy 38 3.3 4 -15.6 24 24 W 14 22 29.64 1004 10 16 0.00 0.00
1:54 pm 13:54 Partly Cloudy 39 3.9 4 -15.6 23 23 NW 25 41 29.67 1005 10 16 0.00 0.00
2:54 pm 14:54 Partly Cloudy 39 3.9 4 -15.6 23 23 NW 24 39 29.70 1006 10 16 0.00 0.00
3:04 pm 15:04 Mostly Sunny 37 3 9 -13 30 30 N 14 22 29.69 1005 10 16 0.00 0.00
3:54 pm 15:54 Mostly Sunny 36 2.2 8 -13.3 31 31 N 15 24 29.75 1008 10 16 0.00 0.00
4:54 pm 16:54 Mostly Clear 30 -1.1 9 -12.8 41 41 NNE 14 22 29.84 1011 10 16 0.00 0.00
5:54 pm 17:54 Mostly Clear 27 -2.8 11 -11.7 51 51 NNE 13 20 29.90 1013 10 16 0.00 0.00
6:54 pm 18:54 Clear 26 -3.3 13 -10.6 57 57 E 8 13 29.96 1015 10 16 0.00 0.00
7:54 pm 19:54 Clear 24 -4.4 14 -10 65 65 Calm 30.02 1017 10 16 0.00 0.00
8:54 pm 20:54 Clear 25 -3.9 14 -10 63 63 SSW 3 6 30.02 1017 10 16 0.00 0.00
9:54 pm 21:54 Clear 23 -5 14 -10 68 68 WNW 5 7 30.04 1017 10 16 0.00 0.00
10:54 pm 22:54 Clear 22 -5.6 14 -10 71 71 SW 3 6 30.05 1018 10 16 0.00 0.00
11:54 pm 23:54 Clear 18 -7.8 11 -11.7 74 74 Calm 30.07 1018 10 16 0.00 0.00

Powered by AerisWeather